KE9LZ Weather Reports


time (UTC)temp
C
wind
direction
speed
KPH
gust
KPH
rain 1hr
cm
rain 24hr
cm
rain mn
cm
humidity
%
barometer
mb
20260901235003 30 222 4.8 12.9 0.00 0.00 0.00 72 1014.5
20260901233003 31 206 6.4 11.3 0.00 0.00 0.00 68 1014.4
20260901231003 32 227 8.0 14.5 0.00 0.00 0.00 65 1014.5
20260901230004 32 233 6.4 19.3 0.00 0.00 0.00 64 1014.8
20260901224003 32 201 8.0 14.5 0.00 0.00 0.00 66 1014.7
20260901223004 32 199 4.8 16.1 0.00 0.00 0.00 66 1014.8
20260901222003 32 183 4.8 11.3 0.00 0.00 0.00 66 1014.8
20260901221003 32 210 4.8 14.5 0.00 0.00 0.00 64 1014.8
20260901220003 32 193 9.7 20.9 0.00 0.00 0.00 63 1014.5
20260901215003 33 273 8.0 14.5 0.00 0.00 0.00 61 1014.8
20260901214003 33 245 6.4 12.9 0.00 0.00 0.00 61 1014.9
20260901212004 33 213 3.2 11.3 0.00 0.00 0.00 63 1014.8
20260901211003 32 193 1.6 11.3 0.00 0.00 0.00 67 1015.0
20260901210003 32 229 4.8 12.9 0.00 0.00 0.00 64 1015.0
20260901205003 32 220 4.8 12.9 0.00 0.00 0.00 64 1015.1
20260901204003 32 215 8.0 14.5 0.00 0.00 0.00 63 1015.0
20260901203003 32 226 4.8 12.9 0.00 0.00 0.00 64 1014.9
20260901201003 32 262 8.0 14.5 0.00 0.00 0.00 66 1015.4
20260901200004 32 222 8.0 11.3 0.00 0.00 0.00 65 1015.3
20260901195003 32 200 4.8 9.7 0.00 0.00 0.00 68 1015.3
20260901193004 32 191 4.8 14.5 0.00 0.00 0.00 66 1015.7
20260901192003 32 259 8.0 14.5 0.00 0.00 0.00 66 1015.6
20260901191004 32 230 6.4 12.9 0.00 0.00 0.00 65 1015.8
20260901190003 32 307 3.2 11.3 0.00 0.00 0.00 68 1015.8
20260901185003 31 269 6.4 12.9 0.00 0.00 0.00 68 1015.9
20260901184004 32 199 4.8 9.7 0.00 0.00 0.00 68 1015.8
20260901183004 31 272 6.4 11.3 0.00 0.00 0.00 73 1015.9
20260901182004 31 40 1.6 12.9 0.00 0.00 0.00 74 1015.9
20260901181003 30 290 4.8 14.5 0.00 0.00 0.00 76 1016.1
20260901180003 30 282 9.7 14.5 0.00 0.00 0.00 80 1016.0
20260901174004 30 343 8.0 14.5 0.00 0.00 0.00 79 1016.5
20260901172003 28 310 4.8 11.3 0.00 0.00 0.00 84 1016.8
20260901171004 28 281 8.0 16.1 0.00 0.00 0.00 84 1016.7
20260901170003 30 296 8.0 12.9 0.00 0.00 0.00 81 1016.7
20260901165004 29 301 1.6 9.7 0.00 0.00 0.00 83 1016.9
20260901164003 29 6 1.6 11.3 0.00 0.00 0.00 82 1016.9
20260901162004 28 301 3.2 14.5 0.00 0.00 0.00 85 1017.2
20260901161004 28 304 3.2 11.3 0.00 0.00 0.00 85 1017.0
20260901160004 27 194 4.8 9.7 0.00 0.00 0.00 87 1017.2
20260901155003 27 295 3.2 11.3 0.00 0.00 0.00 88 1017.3
20260901153004 26 296 3.2 8.0 0.00 0.00 0.00 90 1017.1
20260901151003 26 254 3.2 9.7 0.00 0.00 0.00 90 1017.0
20260901150003 26 276 1.6 8.0 0.00 0.00 0.00 92 1016.9
20260901145003 26 240 3.2 8.0 0.00 0.00 0.00 92 1016.9
20260901144003 25 300 4.8 9.7 0.00 0.00 0.00 94 1017.1
20260901143003 25 233 1.6 8.0 0.00 0.00 0.00 95 1017.0
20260901142003 25 205 3.2 4.8 0.00 0.00 0.00 96 1016.8
20260901141003 24 170 1.6 3.2 0.00 0.00 0.00 97 1017.0
20260901140003 24 336 3.2 4.8 0.00 0.00 0.00 98 1016.8
20260901135003 23 32 1.6 4.8 0.00 0.00 0.00 99 1016.8
20260901134003 23 279 1.6 8.0 0.00 0.00 0.00 99 1016.7
20260901132003 23 157 1.6 3.2 0.00 0.00 0.00 99 1016.8
20260901131003 23 134 1.6 3.2 0.00 0.00 0.00 99 1017.0
20260901130003 23 253 1.6 8.0 0.00 0.00 0.00 99 1016.8
20260901125003 23 291 1.6 9.7 0.00 0.00 0.00 99 1017.1
20260901124003 23 285 3.2 8.0 0.00 0.00 0.00 99 1017.0
20260901123004 23 3 3.2 4.8 0.00 0.00 0.00 99 1017.0
20260901122003 22 217 1.6 8.0 0.00 0.00 0.00 99 1016.9
20260901120003 22 177 3.2 4.8 0.00 0.00 0.00 99 1016.7
20260901115004 22 124 3.2 4.8 0.00 0.00 0.00 99 1016.5
20260901114003 22 264 3.2 9.7 0.00 0.00 0.00 99 1016.2
20260901113003 22 29 6.4 9.7 0.00 0.00 0.00 99 1016.2
20260901112003 22 311 3.2 8.0 0.00 0.00 0.00 99 1015.9
20260901111003 22 346 1.6 4.8 0.00 0.00 0.00 99 1016.0
20260901110003 22 160 1.6 4.8 0.00 0.00 0.00 99 1015.6
20260901105003 22 258 1.6 4.8 0.00 0.00 0.00 99 1015.6
20260901104003 22 186 1.6 4.8 0.00 0.00 0.00 99 1015.6
20260901103003 22 228 1.6 3.2 0.00 0.00 0.00 99 1015.6
20260901101003 22 120 1.6 3.2 0.00 0.00 0.00 99 1015.6
20260901100003 22 108 1.6 3.2 0.00 0.00 0.00 99 1015.6
20260901095003 22 98 1.6 4.8 0.00 0.08 0.00 99 1015.6
20260901094004 22 138 1.6 3.2 0.00 0.10 0.00 99 1015.7
20260901093004 22 195 0.0 1.6 0.00 0.10 0.00 99 1015.8
20260901092003 23 143 1.6 3.2 0.00 0.13 0.00 99 1015.7
20260901091003 23 179 1.6 3.2 0.00 0.23 0.00 99 1015.6
20260901090003 23 130 1.6 3.2 0.00 0.23 0.00 99 1015.4
20260901085003 23 129 1.6 3.2 0.00 0.23 0.00 99 1015.4
20260901084004 23 193 3.2 8.0 0.00 0.23 0.00 99 1015.4
20260901083004 23 180 3.2 4.8 0.00 0.23 0.00 98 1015.3
20260901081004 23 196 1.6 4.8 0.00 0.23 0.00 98 1015.3
20260901075003 23 191 3.2 4.8 0.00 0.23 0.00 98 1015.3
20260901074003 23 197 1.6 3.2 0.00 0.23 0.00 98 1015.3
20260901072003 23 184 1.6 3.2 0.00 0.23 0.00 97 1015.3
20260901070003 23 128 0.0 4.8 0.00 0.23 0.00 97 1015.1
20260901065003 23 131 1.6 3.2 0.00 0.23 0.00 97 1015.1
20260901064004 23 124 0.0 4.8 0.00 0.23 0.00 96 1015.1
20260901063004 24 167 3.2 4.8 0.00 0.23 0.00 96 1015.0
20260901062003 24 109 1.6 3.2 0.00 0.23 0.00 96 1015.3
20260901061003 24 125 0.0 4.8 0.00 0.25 0.00 95 1015.5
20260901060003 24 176 3.2 4.8 0.00 0.28 0.00 95 1015.3
20260901054004 24 157 1.6 4.8 0.00 0.28 0.00 95 1015.3
20260901053003 25 180 0.0 4.8 0.00 0.28 0.00 94 1015.3
20260901052004 24 153 1.6 8.0 0.00 0.28 0.00 94 1015.1
20260901051006 25 165 1.6 4.8 0.00 0.28 0.00 94 1015.0
20260901050004 25 193 0.0 4.8 0.00 0.28 0.00 93 1015.0
20260901045004 25 164 1.6 8.0 0.00 0.28 0.28 93 1015.3
20260901044004 25 210 3.2 9.7 0.00 0.28 0.28 93 1015.3
20260901043003 25 209 3.2 9.7 0.00 0.28 0.28 92 1015.3
20260901042003 25 200 1.6 8.0 0.00 0.28 0.28 92 1015.3
20260901041003 25 221 3.2 4.8 0.00 0.28 0.28 92 1015.3
20260901040003 26 216 3.2 8.0 0.00 0.28 0.28 92 1015.4
20260901035003 26 188 3.2 9.7 0.00 0.28 0.28 91 1015.3
20260901034004 26 197 3.2 9.7 0.00 0.28 0.28 91 1015.2
20260901033003 26 202 3.2 11.3 0.00 0.28 0.28 90 1015.0
20260901032004 26 160 1.6 8.0 0.00 0.28 0.28 90 1015.3
20260901030004 26 204 4.8 9.7 0.00 0.28 0.28 90 1015.2
20260901025004 26 183 3.2 9.7 0.00 0.28 0.28 89 1015.3
20260901024003 26 189 4.8 9.7 0.00 0.28 0.28 89 1015.1
20260901022004 27 198 1.6 9.7 0.00 0.28 0.28 88 1015.2
20260901021004 27 196 4.8 11.3 0.00 0.28 0.28 87 1015.4
20260901020003 27 219 3.2 14.5 0.00 0.28 0.28 86 1015.4
20260901015003 27 211 8.0 11.3 0.00 0.28 0.28 86 1015.1
20260901014004 27 211 6.4 12.9 0.00 0.28 0.28 85 1015.2
20260901013003 27 222 4.8 14.5 0.00 0.28 0.28 84 1015.0
20260901012004 28 216 4.8 9.7 0.00 0.28 0.28 83 1014.7
20260901010003 28 204 3.2 14.5 0.00 0.28 0.28 82 1014.6
20260901004004 28 205 6.4 11.3 0.00 0.28 0.28 81 1014.3
20260901003004 28 192 4.8 12.9 0.00 0.28 0.28 80 1014.3
20260901002004 29 197 4.8 12.9 0.00 0.28 0.28 79 1014.1
20260901001003 29 181 3.2 8.0 0.00 0.28 0.28 77 1013.9